Погода в Курапово

Россия / Липецкая область     52°57′43″N   39°00′25″E
В апреле 2022 года жителям России запретили посещать сайт meteo.paraplan.net по решению Генеральной прокуратуры. Аудитория сайта уменьшилась в 10 раз. Владельцы сайта не видят смысла в поддержке погодного сервера в таких условиях. Сайт будет закрыт в октябре.
темп.,
°C
ветер,
м/с
пор.,
м/с
влажн.,
%
обл.,
%
осадки,
мм/ч
давл.,
гПа
погр.,
м
3 октября, пн
пн300:00+16юв71692100 2.8 998845
03:00+16юв91789100 4.4 995848
06:00+15юв101790100 2.1 9931089
09:00+12ююз81285100 5.9 996865
12:00+10ююз81379100 0.4 10001264
15:00+9ююз81682100 0.6 10031580
18:00+10ю9158098 0.1 10051272
21:00+10ю915827 0.1 1007799
4 октября, вт
вт400:00+10ю816815 0.0 1008638
03:00+9ю816795 0.0 1009602
06:00+9ю816795 0.0 1010687
09:00+10ююв81674100 0.0 1010816
12:00+14ю10166679 0.1 10111731
15:00+13ю81376100 1.4 10121425
18:00+11ююз51079100 1.3 1013509
21:00+9ююз3886100 1.3 1014386
5 октября, ср
ср500:00+9ю51183100 0.1 1014714
03:00+8ююз61182100 0.1 1014632
06:00+8ююз61188100 0.7 10141244
09:00+8ююз698895 1.1 1015877
12:00+9юз61080100 0.8 10161357
15:00+9зюз597494 1.0 10171023
18:00+7зюз488392 0.1 1018260
21:00+6з488947 0.1 1019252
6 октября, чт
чт600:00+6юз3790100 0.0 1019230
03:00+7зюз51089100 0.1 1019444
06:00+7з4894100 0.0 1019329
09:00+8зюз379496 0.1 1020425
12:00+9зюз4891100 0.1 1020467
15:00+13з6972100 0.1 10191097
18:00+11зюз4987100 0.0 1019238
21:00+12зюз51185100 0.0 1019468
7 октября, пт
пт700:00+10зюз512895 0.0 1019359
03:00+9зюз511951 0.0 1018282
06:00+9з5109640 0.0 1019320
09:00+11сз697985 0.0 1021659
12:00+14зсз68600 0.0 1022926
15:00+15зсз69540 0.0 10221097
18:00+11зсз37760 0.0 1023133
21:00+8зсз38910 0.0 1025211